Hourly Data Report for February 10, 2003

SHERBROOKE A
QUEBEC

45°26'00.000" N
71°41'00.000" W
241.40 m
7028124
71610
YSC

Download Data

Hourly Data (February 2003)
Hourly Data Report for February 10, 2003
TIME
LST
Temp Definition
°C
Dew Point Definition
°C
Rel Hum Definition
%
Precip. Amount Definition
mm

Wind Dir Definition
10's deg

Wind Spd Definition
km/h
Visibility Definition
km
Stn Press Definition
kPa
Hmdx Definition


Wind Chill Definition


Weather Definition


00:00 -14.1 -17.0 79   21 6 15.0 98.43   -18  
01:00 -16.6 -19.6 78   17 4 15.0 98.38   -20  
02:00 -18.1 -22.2 70   10 6 15.0 98.35   -23  
03:00 -19.7 -23.7 70   10 7 15.0 98.30   -25  
04:00 -21.5 -25.4 71   4 4 15.0 98.24   -25  
05:00 -19.4 -24.5 64   4 7 15.0 98.16   -25  
06:00 -22.6 -27.0 67     0 15.0 98.12      
07:00 -19.5 -23.7 69   8 6 15.0 98.08   -24  
08:00 -16.7 -20.6 72     0 24.1 98.03     Mainly Clear
09:00 -13.7 -20.3 57     0 24.1 97.95     Mainly Clear
10:00 -6.5 -13.2 59   18 11 24.1 97.89   -11 Mostly Cloudy
11:00 -5.3 -12.5 57   19 19 24.1 97.79   -12 Cloudy
12:00 -4.6 -13.1 51   20 19 24.1 97.63   -11 Mostly Cloudy
13:00 -4.1 -13.4 48   22 20 24.1 97.54   -10 Cloudy
14:00 -4.1 -12.7 51   21 17 24.1 97.43   -10 Cloudy
15:00 -3.9 -12.5 51   21 9 24.1 97.34   -8 Cloudy
16:00 -4.1 -11.4 57   23 6 24.1 97.20   -7 Cloudy
17:00 -4.6 -11.1 60     0 19.3 97.10     Snow
18:00 -5.8 -8.9 79   13 4 2.1 97.01   -8 Snow
19:00 -6.9 -9.5 82   1 6 4.8 96.88   -10 Snow
20:00 -7.1 -9.6 82     0 3.9 96.78     Snow
21:00 -7.1 -9.7 82     0 2.6 96.70     Snow
22:00 -8.2 -10.9 81     0 2.3 96.65     Snow
23:00 -7.7 -10.4 81   15 4 3.5 96.61   -10 Snow

Notes on Data Quality.

Legend

  • E = Estimated
  • M = Missing
  • NA = Not Available*
  • [empty] = Indicates an unobserved value
Date modified: